Fes-Sais, Morocco

2:42 AM WEST on May 01, 2017 (GMT +0100)
Fes-Sais

Weather History for GMFF - May, 2013

Change the Weather History Date:

Monday, May 6, 2013

  Actual Average Record
Temperature  
Mean Temperature 64 °F -  
Max Temperature 82 °F 78 °F 94 °F (2014)
Min Temperature 47 °F 52 °F 42 °F (1998)
Growing Degree Days 14 (Base 50)    
Moisture  
Dew Point 45 °F    
Average Humidity 49    
Maximum Humidity 82    
Minimum Humidity 15    
Precipitation  
Precipitation 0.00 in 0.06 in - ()
Sea Level Pressure  
Sea Level Pressure 30.14 in    
Wind  
Wind Speed 7 mph ()    
Max Wind Speed 12 mph    
Max Gust Speed 29 mph    
Visibility 5.8 miles    
Events      
Averages and records for this station are not official NWS values.
T = Trace of Precipitation, MM = Missing Value Source: Averaged Metar Reports

Daily Weather History Graph

Daily Weather History Graph

Search for Another Location

Airport or City:

Trip Planner

Search our weather history database for the weather conditions in past years. The results will help you decide how hot, cold, wet, or windy it might be!

Date:

Astronomy

May. 06, 2013 Rise Set
Actual Time 6:26 AM WEST 8:07 PM WEST
Civil Twilight 5:59 AM WEST 8:34 PM WEST
Nautical Twilight 5:26 AM WEST 9:07 PM WEST
Astronomical Twilight 4:52 AM WEST 9:41 PM WEST
Moon 4:11 AM WEST (5/6) 5:01 PM WEST (5/6)
Length of Visible Light 14h 35m
Length of Day
13h 41m
Waning Crescent, 12% of the Moon is Illuminated
May 6
Waning Crescent
May 10
New
May 18
First Quarter
May 25
Full
May 31
Last Quarter

Hourly Weather History & Observations

Time (WEST) Temp. Dew Point Humidity Pressure Visibility Wind Dir Wind Speed Gust Speed Precip Events Conditions
12:00 AM 55.4 °F 46.4 °F 72% 30.15 in - SSW 10.4 mph - N/A   Clear
1:00 AM 53 °F 45 °F 66% 30.18 in 6 mi SSW 9.2 mph - -   Clear
1:00 AM 53.6 °F 44.6 °F 72% 30.15 in - SSW 9.2 mph - N/A   Clear
2:00 AM 53.6 °F 46.4 °F 77% 30.15 in - SSW 6.9 mph - N/A   Clear
3:00 AM 53.6 °F 44.6 °F 72% 30.15 in - SSW 9.2 mph - N/A   Clear
4:00 AM 52 °F 44 °F 66% 30.16 in 6 mi South 9.2 mph - -   Clear
4:00 AM 51.8 °F 44.6 °F 76% 30.12 in - South 9.2 mph - N/A   Clear
5:00 AM 48.2 °F 42.8 °F 82% 30.12 in - Variable 3.5 mph - N/A   Clear
6:00 AM 48.2 °F 42.8 °F 82% 30.15 in - South 8.1 mph - N/A   Clear
7:00 AM 48 °F 42 °F 72% 30.20 in 6 mi SSE 6.9 mph - -   Clear
7:00 AM 51.8 °F 44.6 °F 76% 30.15 in - SSE 6.9 mph - N/A   Clear
8:00 AM 60.8 °F 48.2 °F 63% 30.15 in - SE 3.5 mph - N/A   Clear
9:00 AM 69.8 °F 48.2 °F 46% 30.15 in - ENE 6.9 mph - N/A   Clear
10:00 AM 69 °F 46 °F 32% 30.12 in 6 mi NE 5.8 mph - -  
10:00 AM 69.8 °F 46.4 °F 43% 30.15 in - NE 5.8 mph - N/A   Clear
11:00 AM 73.4 °F 50.0 °F 44% 30.15 in - Variable 4.6 mph - N/A   Clear
12:00 PM 75.2 °F 46.4 °F 36% 30.15 in - Variable 4.6 mph - N/A   Clear
1:00 PM 79 °F 48 °F 23% 30.08 in 6 mi North 8.1 mph - -  
1:00 PM 80.6 °F 48.2 °F 32% 30.15 in - Variable 8.1 mph - N/A   Clear
2:00 PM 80.6 °F 48.2 °F 32% 30.15 in - Variable 5.8 mph - N/A   Clear
3:00 PM 80.6 °F 42.8 °F 26% 30.15 in 6.2 mi WNW 9.2 mph - N/A   Partly Cloudy
4:00 PM 81 °F 41 °F 15% 30.04 in 6 mi NW 10.4 mph - -   Scattered Clouds
4:00 PM 82.4 °F 42.8 °F 25% 30.12 in 1.8 mi Variable 10.4 mph - N/A   Partly Cloudy
5:00 PM 80.6 °F 41.0 °F 24% 30.12 in 6.2 mi NNW 11.5 mph - N/A   Partly Cloudy
6:00 PM 80.6 °F 39.2 °F 23% 30.12 in 6.2 mi NNW 9.2 mph - N/A   Mostly Cloudy
7:00 PM 80 °F 40 °F 15% 30.05 in 6 mi WNW 8.1 mph - -   Scattered Clouds
7:00 PM 80.6 °F 39.2 °F 23% 30.12 in 6.2 mi NNW 8.1 mph - N/A   Mostly Cloudy
8:00 PM 73.4 °F 44.6 °F 36% 30.15 in 6.2 mi NW 6.9 mph 28.8 mph N/A   Partly Cloudy
9:00 PM 66.2 °F 46.4 °F 49% 30.18 in - SSW 3.5 mph - N/A   Clear
10:00 PM 59 °F 46 °F 52% 30.19 in 6 mi SSW 8.1 mph - -   Clear
10:00 PM 55.4 °F 42.8 °F 63% 30.21 in - SSW 8.1 mph - N/A   Clear
11:00 PM 55.4 °F 42.8 °F 63% 30.21 in - South 8.1 mph - N/A   Clear